Location: Brześć Kujawski
(52.6059°N, 18.8949°E)
Time: 23:24:07
(UTC+02:00)

ISS - Visible Passes

Search period start: 22 September 2018 00:00
Search period end: 02 October 2018 00:00
Orbit: 403 x 408 km, 51.6° (Epoch: 23 September)

Date Brightness Start Highest point End Pass type
(mag) Time Alt. Az. Time Alt. Az. Time Alt. Az.
22 Sep -1.4 20:28:22 10° S 20:28:53 13° S 20:28:53 13° S visible
23 Sep -1.7 19:37:42 10° SSE 19:39:06 12° SE 19:39:38 12° SE visible
23 Sep -1.2 21:11:50 10° SW 21:12:21 14° SW 21:12:21 14° SW visible
24 Sep -2.8 20:20:15 10° SW 20:22:54 30° SSE 20:22:54 30° SSE visible
25 Sep -2.3 19:28:53 10° SSW 19:31:27 21° SSE 19:33:18 14° ESE visible
25 Sep -2.1 21:04:18 10° WSW 21:05:59 27° WSW 21:05:59 27° WSW visible
26 Sep -3.5 20:12:32 10° SW 20:15:42 47° SSE 20:16:15 41° SE visible
26 Sep -0.6 21:48:47 10° W 21:48:56 11° W 21:48:56 11° W visible
27 Sep -2.9 19:20:51 10° SW 19:23:53 34° SSE 19:26:26 13° E visible
27 Sep -2.6 20:56:52 10° W 20:59:06 39° WSW 20:59:06 39° WSW visible
28 Sep -3.8 20:04:58 10° WSW 20:08:15 65° SSE 20:09:12 41° ESE visible
28 Sep -0.7 21:41:23 10° W 21:41:52 13° W 21:41:52 13° W visible
29 Sep -3.5 19:13:07 10° WSW 19:16:21 52° SSE 19:19:14 12° E visible
29 Sep -2.9 20:49:26 10° W 20:51:54 46° WSW 20:51:54 46° WSW visible
30 Sep -3.9 19:57:29 10° W 20:00:47 76° S 20:01:54 38° E visible
30 Sep -0.8 21:33:57 10° W 21:34:34 14° W 21:34:34 14° W visible
01 Oct -3.7 19:05:32 10° WSW 19:08:50 69° S 19:11:53 12° E visible
01 Oct -3.0 20:41:58 10° W 20:44:32 48° WSW 20:44:32 48° WSW visible
